EW4987 Weather Reports


Display with metric or nautical units.
time (UTC)temp
F
wind
direction
speed
MPH
gust
MPH
rain 1hr
in
rain 24hr
in
rain mn
in
humidity
%
barometer
mb
20260502203056 67 234 0.0 1.0 0.00 0.00 0.00 18 1015.7
20260502201540 67 211 0.0 9.0 0.00 0.00 0.00 16 1015.9
20260502200032 66 169 0.0 3.0 0.00 0.00 0.00 16 1016.1
20260502194537 66 90 0.0 13.0 0.00 0.00 0.00 15 1016.5
20260502193027 65 155 0.0 4.0 0.00 0.00 0.00 14 1016.6
20260502191520 65 152 0.0 7.0 0.00 0.00 0.00 13 1016.8
20260502190013 64 202 0.0 8.0 0.00 0.00 0.00 13 1017.2
20260502184514 64 146 0.0 0.0 0.00 0.00 0.00 14 1017.5
20260502183006 64 174 0.0 0.0 0.00 0.00 0.00 16 1017.8
20260502181604 63 205 0.0 11.0 0.00 0.00 0.00 17 1018.0
20260502180113 63 186 0.0 12.0 0.00 0.00 0.00 15 1018.3
20260502163047 50 12 0.0 0.0 0.00 0.00 0.00 41 1019.6
20260502161525 49 26 0.0 0.0 0.00 0.00 0.00 40 1019.9
20260502151507 41 33 0.0 0.0 0.00 0.00 0.00 44 1021.0
20260502123019 26 33 0.0 0.0 0.00 0.00 0.00 15 1021.5
20260502121516 26 33 0.0 0.0 0.00 0.00 0.00 18 1021.3
20260502114506 26 33 0.0 0.0 0.00 0.00 0.00 29 1021.2
20260502113003 26 33 0.0 0.0 0.00 0.00 0.00 37 1021.2
20260502111600 27 33 0.0 0.0 0.00 0.00 0.00 43 1021.0
20260502110104 27 33 0.0 0.0 0.00 0.00 0.00 46 1021.0
20260502104555 28 33 0.0 0.0 0.00 0.00 0.00 48 1021.0
20260502103053 28 33 0.0 0.0 0.00 0.00 0.00 50 1020.9
20260502101552 28 33 0.0 0.0 0.00 0.00 0.00 52 1020.8
20260502071526 34 33 0.0 0.0 0.00 0.00 0.00 51 1020.3
20260502070023 35 33 0.0 0.0 0.00 0.00 0.00 49 1020.1
20260502064533 35 33 0.0 0.0 0.00 0.00 0.00 47 1019.9
20260502063016 36 33 0.0 0.0 0.00 0.00 0.00 47 1019.7
20260502061511 38 33 0.0 0.0 0.00 0.00 0.00 46 1019.5
20260502060008 39 33 0.0 0.0 0.00 0.00 0.00 44 1019.4
20260502054502 39 33 0.0 0.0 0.00 0.00 0.00 44 1019.3
20260502053104 39 33 0.0 0.0 0.00 0.00 0.00 43 1019.2
20260502051601 40 33 0.0 0.0 0.00 0.00 0.00 43 1019.1
20260502050101 42 33 0.0 0.0 0.00 0.00 0.00 39 1018.9
20260502044557 44 24 0.0 0.0 0.00 0.00 0.00 37 1018.9
20260502043102 46 9 0.0 0.0 0.00 0.00 0.00 33 1018.6
20260502041551 45 35 0.0 0.0 0.00 0.00 0.00 33 1018.4
20260502040044 46 34 0.0 0.0 0.00 0.00 0.00 33 1018.1
20260502034540 46 36 0.0 0.0 0.00 0.00 0.00 32 1018.0
20260502033039 46 36 0.0 0.0 0.00 0.00 0.00 33 1017.6
20260502031531 48 35 0.0 0.0 0.00 0.00 0.00 32 1017.3
20260502030027 52 35 0.0 0.0 0.00 0.00 0.00 27 1017.0
20260502024523 53 36 0.0 0.0 0.00 0.00 0.00 24 1016.9
20260502023018 55 34 0.0 0.0 0.00 0.00 0.00 22 1016.8
20260502021515 56 34 0.0 0.0 0.00 0.00 0.00 21 1016.7
20260502020009 58 24 0.0 0.0 0.00 0.00 0.00 19 1016.5
20260502014522 60 13 0.0 1.0 0.00 0.00 0.00 18 1016.3
20260502013103 60 360 0.0 0.0 0.00 0.00 0.00 17 1016.3
20260502011557 61 15 0.0 0.0 0.00 0.00 0.00 18 1016.2
20260502010059 61 15 0.0 0.0 0.00 0.00 0.00 18 1016.1
20260502004558 62 5 0.0 0.0 0.00 0.00 0.00 17 1016.2
20260502003045 62 40 0.0 1.0 0.00 0.00 0.00 18 1016.1
20260502001541 62 331 0.0 1.0 0.00 0.00 0.00 18 1016.1
20260502000047 62 327 1.0 19.0 0.00 0.00 0.00 17 1016.0
20260501234532 62 315 0.0 1.0 0.00 0.00 0.00 18 1016.1
20260501233027 62 306 0.0 0.0 0.00 0.00 0.00 21 1016.2
20260501231525 62 21 0.0 1.0 0.00 0.00 0.00 18 1016.2
20260501230020 62 15 0.0 10.0 0.00 0.00 0.00 18 1016.4
20260501224514 62 340 0.0 5.0 0.00 0.00 0.00 17 1016.4
20260501223009 62 17 0.0 0.0 0.00 0.00 0.00 17 1016.6
20260501221514 62 310 0.0 0.0 0.00 0.00 0.00 22 1016.6
20260501214556 61 304 0.0 13.0 0.00 0.00 0.00 20 1016.9
20260501213051 61 288 0.0 0.0 0.00 0.00 0.00 20 1016.9
20260501211547 61 315 0.0 0.0 0.00 0.00 0.00 20 1017.1
20260501210042 60 295 4.0 16.0 0.00 0.00 0.00 22 1017.2
20260501204538 60 315 12.0 20.0 0.00 0.00 0.00 21 1017.4